GFSSW_850_spd_336.txt.gz
Wind_Speed
7 7 9 10 10 9 8 10 9 10 9 8 8 9 9 11 12 14 16 14 11 17 8 11 13 10 9 8 5 5 3 3 5 6 4 0 0 2 2 4 5 6 7 6 5
9 8 8 11 11 11 9 9 11 10 10 10 9 9 10 11 13 17 13 11 12 12 12 9 13 11 6 6 6 4 4 9 4 4 2 2 1 4 3 2 6 11 14 12 10
17 13 12 10 12 13 11 11 10 11 11 11 10 9 10 10 12 5 6 14 13 12 14 9 10 11 5 5 6 5 6 4 3 5 2 2 3 3 2 5 13 9 8 13 16
27 23 18 16 10 12 14 12 11 11 11 12 12 10 9 8 4 2 4 5 14 12 12 13 12 8 4 5 6 3 8 5 2 2 1 2 4 5 12 15 13 10 9 11 17
15 19 26 22 18 13 11 13 13 12 11 11 12 10 9 8 10 8 6 3 11 13 14 14 17 7 5 5 4 3 3 3 7 8 8 9 10 10 21 29 25 22 12 14 17
20 16 17 22 26 20 14 13 14 13 12 12 11 11 10 7 8 8 7 6 8 12 15 15 8 8 4 4 6 2 4 8 10 9 6 4 3 1 5 2 4 9 20 18 19
20 22 18 15 19 24 20 16 16 13 12 11 10 10 14 21 9 7 6 7 8 13 14 15 7 8 3 1 4 1 4 6 8 5 6 4 7 10 23 15 15 6 4 15 23
17 20 19 19 15 18 23 18 17 17 13 11 10 8 11 10 16 20 9 8 10 12 13 14 6 5 3 1 3 1 2 2 1 5 1 4 9 4 3 9 7 10 9 8 8
24 21 19 19 18 15 18 22 16 18 16 12 8 7 9 9 17 13 15 8 10 11 10 13 7 3 2 3 3 3 3 4 7 6 3 5 7 4 1 1 5 7 10 12 11
23 28 24 19 17 16 14 11 15 16 11 10 7 4 14 6 8 13 14 10 9 13 10 9 5 3 2 4 6 6 4 4 4 1 2 3 12 10 21 19 22 19 21 23 24
26 27 26 25 19 15 11 7 9 6 16 11 9 6 2 9 4 8 16 16 10 13 5 5 4 9 15 5 2 3 3 2 3 1 2 6 9 13 20 12 19 23 23 24 20
30 27 25 27 23 16 15 15 17 3 6 29 19 21 6 6 3 9 18 12 8 5 7 3 10 8 6 7 5 1 1 4 3 1 2 4 13 10 9 7 7 11 12 10 14
32 30 27 23 26 24 23 29 15 13 7 8 37 25 20 16 7 13 23 9 4 6 7 6 3 9 7 5 8 4 6 3 3 3 1 6 9 4 1 2 3 1 3 7 12
35 33 30 27 28 29 30 22 20 11 5 8 11 16 22 17 8 20 29 9 4 10 8 6 4 5 4 6 7 5 9 6 1 4 4 3 5 5 2 5 3 4 6 10 15
37 35 31 29 27 18 22 21 31 13 6 9 13 11 23 21 17 18 29 12 7 7 8 9 8 6 5 7 8 5 5 7 4 4 1 2 1 8 2 6 7 7 9 11 14
39 38 35 33 33 31 11 13 26 8 12 7 10 14 12 18 5 10 16 13 6 5 2 5 2 5 5 2 10 8 7 7 4 3 2 7 7 5 5 6 3 4 13 13 15
40 41 38 40 41 32 31 24 11 17 1 8 8 11 18 10 9 8 14 15 9 6 6 1 4 2 3 6 3 2 6 3 3 2 6 2 3 8 4 5 5 8 14 15 16
43 41 41 40 39 33 37 13 19 22 13 2 8 15 16 11 11 9 17 14 18 3 4 8 4 9 5 6 8 7 7 6 8 5 3 2 7 6 4 7 6 6 12 15 17
44 46 42 42 42 42 36 20 18 16 19 8 11 18 11 15 9 12 17 19 19 16 14 9 7 1 1 4 8 6 7 4 6 2 2 5 7 9 5 4 5 7 14 17 17
47 39 43 48 42 47 21 26 10 9 11 8 16 14 25 21 13 19 17 16 10 23 2 6 3 1 2 2 1 4 7 3 2 4 4 4 5 5 5 9 7 7 14 16 15
38 23 30 50 39 35 14 21 6 24 10 18 17 14 19 18 20 17 19 8 20 19 11 3 2 1 5 6 8 3 3 3 4 4 5 2 6 7 8 9 10 8 14 14 15
49 8 28 35 13 6 19 11 18 12 22 9 4 6 14 22 18 19 20 16 27 18 23 6 4 4 4 1 2 3 5 6 5 6 2 3 6 1 5 7 14 14 13 11 13
21 21 18 43 14 18 12 7 19 16 15 17 8 8 5 17 11 20 13 9 13 21 23 13 5 4 3 5 2 5 5 4 4 3 7 6 7 4 2 7 12 17 14 12 12
21 6 11 33 16 21 15 22 10 21 21 7 4 5 7 17 9 19 10 5 19 14 17 22 3 11 13 6 12 10 8 7 4 4 5 7 4 3 5 8 9 16 17 15 13
9 4 8 4 13 18 18 10 22 14 13 22 14 13 8 6 20 8 17 5 9 22 8 12 12 12 4 4 9 8 14 11 9 18 11 15 8 8 13 13 16 22 20 17 15
9 3 5 3 9 14 18 16 19 6 11 18 20 20 19 4 14 9 17 7 7 10 16 5 3 6 7 1 2 2 7 17 23 17 13 2 6 5 7 8 16 23 24 20 17
26 14 9 6 7 12 10 16 18 22 16 15 25 17 13 7 11 14 20 17 14 16 20 11 5 7 6 7 6 4 20 17 17 22 25 17 10 5 5 10 20 27 27 23 19

GFSSW_850_spd_339.txt.gz
Wind_Speed
12 8 2 6 9 8 8 8 9 7 8 10 9 10 10 10 11 13 14 11 9 14 9 7 11 10 8 5 4 5 3 3 5 7 4 0 1 2 2 3 4 5 6 4 5
14 12 10 6 6 9 9 9 9 9 8 9 11 10 11 12 13 16 12 11 10 10 13 9 13 12 7 6 5 4 3 9 4 4 3 1 1 2 1 1 5 10 14 12 10
21 19 16 13 10 10 9 10 10 9 10 10 10 10 11 12 13 4 4 8 14 10 11 9 10 12 6 6 7 5 5 3 3 7 4 3 3 3 3 5 13 10 8 13 15
17 22 24 21 15 13 10 11 11 10 10 11 10 10 9 9 3 2 4 3 11 12 12 11 11 9 5 6 7 2 8 6 3 3 2 3 4 4 11 13 14 11 10 12 14
18 17 17 19 23 19 16 12 12 12 11 11 11 10 9 7 8 9 8 3 8 12 12 13 14 6 5 5 7 4 4 5 8 10 10 9 12 10 20 26 23 24 23 17 15
16 16 20 17 16 23 22 16 12 14 12 11 11 11 8 6 7 8 7 6 7 12 14 15 7 7 3 3 5 3 4 8 9 14 10 5 4 2 7 4 6 7 14 21 16
18 16 15 19 17 16 19 23 13 14 14 11 11 11 12 20 9 6 7 7 8 10 13 15 8 9 2 1 4 1 4 5 10 7 6 6 7 10 22 15 15 16 8 16 18
20 20 17 16 17 17 15 19 23 12 17 13 11 9 9 10 12 18 12 6 9 10 10 12 9 8 3 1 3 1 2 1 1 6 3 7 9 3 3 8 12 7 9 7 17
21 19 20 20 16 16 16 13 19 14 17 14 8 7 8 7 13 15 14 11 9 10 10 12 7 3 4 4 4 2 4 5 6 7 3 4 6 2 2 2 4 4 8 11 13
22 19 21 22 20 15 16 13 8 15 9 6 9 4 13 7 10 11 14 11 9 13 9 9 4 2 3 4 6 6 4 4 5 2 3 3 13 12 20 16 21 19 14 14 19
26 23 20 22 18 17 15 3 5 7 16 14 7 6 1 9 8 10 18 17 10 12 5 6 4 7 11 9 2 4 4 3 3 1 3 6 10 15 19 16 21 26 21 22 26
27 24 21 20 20 15 17 12 6 2 8 31 32 21 7 10 7 12 20 14 8 5 7 4 9 9 4 4 3 2 3 4 4 1 3 5 13 13 8 10 16 19 18 19 21
29 26 23 21 18 20 24 20 12 8 7 11 31 33 24 19 11 21 25 12 5 5 7 7 4 9 8 5 5 3 5 3 4 3 1 6 8 5 3 4 7 9 10 11 13
33 31 28 21 23 24 24 18 16 20 5 7 11 17 25 18 9 20 28 12 4 10 6 6 6 6 6 6 8 6 8 7 4 1 4 2 5 6 3 6 5 8 7 9 13
31 32 30 26 20 20 25 15 13 10 5 8 12 12 27 22 17 17 33 18 9 8 7 8 10 7 6 7 9 5 3 7 2 1 4 1 2 7 1 6 8 9 11 12 16
32 34 31 31 31 28 14 20 18 8 12 5 11 14 12 21 5 12 18 10 10 6 2 4 1 4 7 4 12 8 6 6 4 3 2 7 7 5 5 8 3 5 16 17 19
34 38 37 34 35 29 25 21 7 13 2 6 8 10 20 13 10 9 15 13 10 7 8 3 4 3 4 7 3 3 6 2 3 2 6 3 2 7 7 5 4 8 21 21 21
38 29 36 38 36 33 34 11 16 15 17 3 7 13 20 15 15 14 17 17 18 2 5 10 5 11 6 6 9 7 8 6 7 4 3 2 7 6 4 8 6 9 20 21 22
34 38 39 41 38 38 28 19 23 9 27 8 8 11 15 16 8 14 17 19 19 20 14 9 7 3 2 5 10 6 7 6 7 2 2 5 7 10 6 5 6 10 18 23 23
35 38 43 42 42 42 17 30 21 12 16 15 20 14 18 19 12 20 16 18 10 19 0 8 3 2 1 1 4 5 8 4 2 3 4 4 5 6 5 10 7 8 16 21 21
40 24 41 45 39 37 18 16 23 17 17 31 25 15 17 15 18 19 16 9 27 21 12 6 4 1 3 6 11 4 3 2 4 5 5 1 6 8 10 8 14 10 21 22 22
42 13 41 36 19 17 20 18 24 16 34 11 5 12 15 23 17 20 21 16 27 17 23 6 5 4 6 3 2 2 3 7 5 7 2 3 7 1 5 5 11 15 18 19 19
33 16 32 44 22 17 16 7 25 25 19 16 9 9 8 16 17 22 21 10 11 19 20 15 5 4 3 3 2 6 9 10 3 3 9 7 11 1 3 4 11 18 20 19 20
24 8 17 36 35 23 26 25 16 23 21 21 12 7 8 13 15 17 16 4 19 15 17 23 3 16 16 8 9 9 9 9 10 11 11 9 11 4 5 7 7 18 21 20 20
23 5 8 14 15 19 20 11 22 13 14 22 16 17 13 18 22 14 24 5 6 19 12 12 16 11 4 4 5 8 19 17 14 23 14 18 10 7 9 11 10 20 20 19 20
11 7 4 3 16 18 24 20 21 19 10 20 14 18 14 14 16 19 15 13 9 9 21 6 4 4 7 3 5 2 11 19 24 21 21 5 7 8 2 12 15 22 24 25 24
16 12 13 6 11 15 14 17 23 21 16 9 18 17 20 20 12 12 7 15 8 16 21 11 6 4 10 7 8 3 18 19 15 18 24 10 31 8 6 10 21 31 33 31 27

GFSSW_850_spd_342.txt.gz
Wind_Speed
11 10 9 4 7 8 8 7 8 8 7 8 7 8 8 10 11 12 12 9 8 14 9 5 10 9 8 7 6 6 5 7 5 5 0 1 4 3 3 3 4 5 4 5 7
17 14 13 12 5 8 10 9 7 8 9 9 8 9 9 10 13 15 11 10 9 10 11 10 11 11 5 5 5 6 5 7 2 2 2 1 3 2 4 5 7 7 12 10 10
17 20 20 19 14 10 9 12 10 9 9 9 9 8 10 11 12 2 2 5 13 9 9 12 9 10 5 5 7 5 6 4 4 7 4 4 4 3 4 8 12 10 10 13 14
11 16 18 23 22 19 15 8 13 12 11 10 9 9 8 7 4 1 2 2 8 11 11 11 11 7 6 7 7 5 9 6 2 3 3 4 4 6 11 11 7 7 9 11 15
13 14 13 17 19 24 25 17 10 13 13 13 12 9 8 6 9 10 8 5 5 11 12 13 13 7 6 5 5 7 5 5 8 9 9 9 14 12 19 20 18 19 16 16 15
14 16 16 14 17 17 18 24 17 13 13 14 13 10 8 7 8 9 7 5 6 10 12 14 8 9 4 3 8 1 6 9 8 12 9 7 10 3 9 8 12 15 17 19 24
16 16 16 16 14 17 17 16 25 14 12 14 14 11 12 20 9 8 7 7 8 9 12 14 7 7 5 3 4 1 5 7 11 8 6 7 10 15 22 15 13 13 12 13 17
18 18 18 17 16 14 15 15 16 23 9 14 13 11 10 13 15 20 11 7 8 10 9 13 10 8 1 1 0 2 2 4 2 7 3 7 13 2 2 9 14 16 12 10 16
22 20 18 16 18 17 16 14 13 17 11 12 10 8 10 11 19 19 17 17 10 10 10 12 11 4 4 2 3 3 5 7 4 7 3 8 8 2 2 3 6 8 11 11 11
23 22 18 16 17 18 16 13 8 6 16 11 9 6 17 10 13 14 18 16 13 17 11 9 4 5 4 8 8 8 5 4 6 4 5 7 20 16 13 10 12 11 11 11 14
26 23 22 18 16 16 13 10 3 6 20 18 9 10 4 12 9 11 18 18 13 11 9 9 8 14 20 20 4 2 4 6 2 0 4 13 18 18 20 18 19 20 19 16 17
26 25 21 19 19 16 14 12 8 1 9 31 34 19 14 10 6 14 22 14 10 9 10 6 15 14 9 10 12 9 5 6 5 1 4 9 17 19 17 17 20 22 21 19 18
27 26 23 20 18 20 19 18 15 13 8 15 29 39 28 21 10 21 31 12 10 12 17 12 5 13 12 9 12 14 16 10 5 5 4 9 17 13 6 12 12 16 18 19 21
27 26 27 21 21 22 21 14 18 9 5 9 12 18 30 20 13 16 31 15 6 15 12 10 7 8 12 16 14 13 14 14 10 4 6 2 8 9 4 9 8 13 14 14 17
29 30 26 27 21 19 21 17 12 8 6 7 15 10 24 30 17 20 36 16 13 11 9 7 12 14 8 10 18 5 5 10 9 9 5 9 7 7 3 9 13 13 16 14 14
34 30 29 30 27 22 17 18 17 7 14 5 12 15 15 31 13 16 25 12 9 9 4 4 1 6 5 4 17 12 8 6 3 3 5 10 10 8 9 9 5 4 15 16 17
34 31 30 30 30 26 23 25 8 13 2 9 9 11 21 14 19 16 20 17 12 8 13 9 9 4 6 8 4 6 10 2 2 3 6 4 7 13 7 9 6 6 15 15 19
29 31 37 33 34 31 31 10 18 23 27 8 9 16 18 18 18 16 21 20 25 15 11 12 8 14 10 7 11 10 8 5 7 6 2 3 9 6 8 5 12 9 14 17 19
34 36 35 40 33 36 30 18 19 19 25 14 13 17 14 19 12 16 20 26 24 26 13 12 11 12 14 5 10 7 7 2 5 2 2 6 7 10 11 13 10 10 15 20 23
36 38 42 40 41 35 17 32 14 20 9 26 23 18 19 16 19 20 21 21 21 25 17 8 4 3 7 6 2 8 10 4 2 6 8 7 6 8 3 13 8 10 13 18 22
38 32 36 42 37 33 16 21 18 24 28 15 31 24 20 21 21 16 19 13 32 23 20 6 3 3 7 13 17 7 6 4 3 5 5 8 10 9 14 8 14 15 18 20 24
39 14 38 40 17 8 18 15 29 24 36 20 13 23 25 25 23 18 30 22 27 23 28 17 3 7 11 2 4 18 17 13 9 10 6 5 12 3 5 3 5 16 19 20 24
32 21 21 35 18 19 19 17 23 13 28 27 20 17 24 25 25 26 18 21 15 23 19 19 7 7 4 3 4 10 11 21 15 2 11 7 16 1 4 6 8 12 19 22 24
11 5 16 29 33 17 22 27 23 35 23 27 26 25 22 26 24 16 26 13 22 24 25 16 5 20 18 23 13 13 22 19 17 7 21 15 28 12 6 8 5 10 20 22 25
10 8 10 7 13 19 24 20 28 24 28 28 25 27 23 25 26 27 21 23 12 23 22 9 16 15 23 6 17 18 20 20 18 29 14 29 26 20 9 8 7 13 18 21 25
9 6 9 6 21 24 29 24 31 31 18 23 32 27 27 20 25 24 24 22 18 13 22 13 4 16 17 8 7 10 21 23 26 23 19 12 16 17 18 6 11 19 22 24 28
22 29 10 7 13 15 22 30 24 29 28 34 18 26 30 27 29 15 22 7 1 9 16 14 7 7 20 9 5 6 20 28 23 22 30 16 36 6 9 12 18 26 35 36 31

GFSSW_850_spd_345.txt.gz
Wind_Speed
14 13 12 11 8 11 11 11 11 11 11 10 10 10 10 10 12 13 13 10 9 14 7 3 8 7 6 5 4 4 6 9 11 7 1 2 5 4 2 6 6 5 2 6 10
20 17 15 14 15 8 10 13 12 12 13 12 12 11 11 11 13 16 13 12 10 9 10 8 7 8 7 6 5 8 9 10 3 5 4 2 5 3 5 10 11 9 6 9 10
10 14 19 19 18 16 14 10 14 13 14 13 12 13 13 11 12 5 4 6 12 10 10 9 7 9 11 7 8 6 10 8 5 6 6 7 8 8 8 9 12 11 15 13 13
14 12 11 17 22 22 19 17 13 14 15 14 15 13 12 10 5 2 1 1 6 12 10 10 10 7 9 10 11 8 13 14 4 2 4 8 7 9 15 18 2 2 6 16 16
12 14 16 14 13 19 23 24 21 16 14 16 15 14 11 7 11 10 9 8 5 11 11 10 12 11 8 7 8 11 13 9 12 11 11 14 17 15 21 19 18 12 13 15 16
15 14 14 18 16 13 16 19 22 22 16 16 16 15 10 9 11 12 8 6 7 11 12 12 7 10 6 7 11 4 10 14 14 15 12 9 17 5 12 12 21 23 20 18 18
20 17 15 17 15 14 14 16 18 19 20 16 17 13 14 22 12 11 10 9 9 11 11 11 7 10 5 4 8 6 9 13 14 14 9 5 12 17 28 23 15 14 15 16 18
20 20 18 18 18 16 16 16 14 16 18 15 16 14 10 15 15 19 12 12 12 12 12 11 10 8 5 1 3 4 4 6 3 10 4 7 15 2 2 10 18 19 19 17 16
26 26 22 21 16 17 19 19 13 13 13 14 11 8 10 13 17 22 22 12 11 10 10 12 10 7 6 6 5 7 8 10 8 7 2 12 10 1 1 7 12 13 13 15 12
29 25 24 21 18 16 14 19 13 8 8 14 8 6 20 8 14 15 19 16 8 10 7 9 8 8 9 9 9 12 11 12 11 5 7 10 19 17 15 8 9 9 10 13 13
33 27 23 21 20 16 13 9 7 6 18 19 9 19 3 10 9 10 18 17 10 14 10 15 9 15 20 20 13 6 10 12 7 1 3 11 18 18 20 19 18 19 17 17 14
29 28 26 21 20 18 16 12 7 3 10 29 34 20 21 5 7 12 17 16 14 14 14 7 19 16 15 16 16 11 11 13 9 4 4 13 18 19 19 22 23 23 22 22 17
28 29 26 23 21 22 20 17 13 9 7 21 31 40 28 19 12 19 26 18 14 18 18 16 4 15 16 14 15 16 17 13 11 4 11 12 19 21 17 17 23 25 23 22 24
31 29 25 22 22 22 23 20 13 1 6 9 17 17 40 14 14 22 27 17 9 19 16 16 17 6 17 19 16 14 12 15 11 5 5 2 9 14 8 8 10 17 21 23 22
29 30 27 24 15 19 15 17 13 8 7 9 23 9 25 38 14 29 28 23 16 14 10 9 10 14 13 9 15 3 4 10 10 9 10 11 7 6 9 9 14 14 20 21 20
31 29 29 29 29 19 16 18 18 6 14 7 13 16 18 39 20 24 26 19 13 16 17 15 2 14 14 8 18 10 9 7 3 2 6 10 12 11 13 12 11 5 13 16 15
34 28 31 30 27 29 23 23 8 14 6 10 10 13 21 18 28 17 26 26 15 11 18 15 14 5 8 10 9 12 11 2 2 3 7 3 10 16 12 7 7 8 8 15 16
29 32 34 36 30 25 29 11 17 23 23 11 13 18 21 20 30 23 24 25 29 21 10 14 10 18 14 14 9 20 16 6 7 6 3 2 9 7 7 9 7 9 5 13 16
30 31 34 36 34 32 28 16 18 20 28 22 14 15 19 24 13 20 28 27 26 29 12 14 13 22 20 11 16 10 12 9 3 2 3 7 14 13 12 13 12 12 11 16 17
31 35 41 39 38 38 12 30 24 23 18 26 30 19 17 24 20 22 19 24 29 28 22 7 4 4 12 14 13 13 14 5 4 7 11 13 19 12 4 10 13 10 11 13 16
33 29 39 40 34 33 12 8 28 37 26 28 25 30 24 20 28 18 20 19 31 28 26 16 6 1 10 15 18 9 12 10 8 10 8 7 11 13 14 16 9 11 16 19 23
37 14 36 34 16 7 16 12 19 29 39 14 12 22 32 28 25 30 28 26 19 27 27 26 9 7 16 6 17 23 21 23 9 6 11 8 14 4 3 3 3 5 15 18 21
34 32 29 35 18 17 17 14 24 13 31 19 18 18 21 29 22 26 30 24 24 22 19 19 6 9 5 5 13 12 22 22 18 2 11 8 11 13 9 6 5 6 12 16 19
18 6 12 28 18 23 21 22 20 31 20 29 15 23 24 20 23 19 24 21 23 18 30 17 15 22 20 25 11 11 21 24 21 11 19 18 27 10 5 8 6 8 11 18 23
14 8 8 8 15 23 27 21 29 18 26 23 18 27 21 18 22 23 26 21 23 26 22 18 11 23 27 24 17 19 21 23 20 29 17 26 24 23 17 8 4 9 13 20 25
6 6 7 3 19 20 24 23 26 17 25 23 27 24 23 23 26 19 24 25 20 22 23 21 7 15 25 20 21 12 23 23 24 27 22 21 19 15 15 18 5 9 15 21 28
22 17 8 8 17 15 19 26 27 26 26 26 23 24 30 31 30 34 36 28 22 19 20 23 8 10 20 23 17 15 16 26 26 24 28 20 30 10 12 13 17 20 23 28 32